When you browse on this site, cookies collect data to enhance your experience and personalize the content and advertising you see.
Visit our Privacy Policy to learn more. By continuing to use the site, you agree to this use of cookies and data.
  • en Suisse
  • Liste des pays
  • À 7 jours
  • Température de l'eau
  • Carte météo
  • Widgets météo
  • user-avatar
    Se connecter

    Météo par heure à Barisal

    Ce jour, 23 Janvier, Jeudi

    Heure Température Précipitation Vent Pression Humidité
    00:00 +19°C° 0 mm 2 m/s 761 mmHg 44%
    01:00 +19°C° 0 mm 1 m/s 761 mmHg 44%
    02:00 +19°C° 0 mm 1 m/s 760 mmHg 45%
    03:00 +19°C° 0 mm 1 m/s 760 mmHg 46%
    04:00 +19°C° 0 mm 1 m/s 760 mmHg 46%
    05:00 +19°C° 0 mm 1 m/s 760 mmHg 47%
    06:00 +18°C° 0 mm 2 m/s 760 mmHg 49%
    07:00 +19°C° 0 mm 2 m/s 761 mmHg 46%
    08:00 +21°C° 0 mm 2 m/s 762 mmHg 43%
    09:00 +23°C° 0 mm 2 m/s 762 mmHg 40%
    10:00 +25°C° 0 mm 2 m/s 762 mmHg 39%
    11:00 +26°C° 0 mm 2 m/s 761 mmHg 38%
    12:00 +28°C° 0 mm 2 m/s 762 mmHg 38%
    13:00 +28°C° 0 mm 2 m/s 761 mmHg 38%
    14:00 +29°C° 0 mm 2 m/s 760 mmHg 39%
    15:00 +29°C° 0 mm 3 m/s 759 mmHg 39%
    16:00 +28°C° 0 mm 2 m/s 759 mmHg 44%
    17:00 +26°C° 0 mm 2 m/s 759 mmHg 49%
    18:00 +25°C° 0 mm 2 m/s 759 mmHg 53%
    19:00 +24°C° 0 mm 1 m/s 759 mmHg 56%
    20:00 +23°C° 0 mm 1 m/s 760 mmHg 58%
    21:00 +22°C° 0 mm 1 m/s 760 mmHg 61%
    22:00 +22°C° 0 mm 1 m/s 760 mmHg 63%
    23:00 +21°C° 0 mm 1 m/s 760 mmHg 65%

    Demain, 24 Janvier, Vendredi

    Heure Température Précipitation Vent Pression Humidité
    00:00 +21°C° 0 mm 1 m/s 760 mmHg 66%
    01:00 +21°C° 0 mm 1 m/s 759 mmHg 67%
    02:00 +20°C° 0 mm 1 m/s 759 mmHg 68%
    03:00 +20°C° 0 mm 1 m/s 759 mmHg 69%
    04:00 +18°C° 0 mm 2 m/s 759 mmHg 68%
    05:00 +18°C° 0 mm 2 m/s 760 mmHg 67%
    06:00 +18°C° 0 mm 2 m/s 760 mmHg 66%
    07:00 +19°C° 0 mm 2 m/s 760 mmHg 58%
    08:00 +20°C° 0 mm 2 m/s 761 mmHg 49%
    09:00 +23°C° 0 mm 2 m/s 762 mmHg 41%
    10:00 +24°C° 0 mm 2 m/s 761 mmHg 36%
    11:00 +25°C° 0 mm 3 m/s 761 mmHg 31%
    12:00 +27°C° 0 mm 3 m/s 761 mmHg 26%
    13:00 +27°C° 0 mm 3 m/s 760 mmHg 24%
    14:00 +28°C° 0 mm 3 m/s 760 mmHg 23%
    15:00 +28°C° 0 mm 4 m/s 759 mmHg 22%
    16:00 +26°C° 0 mm 3 m/s 759 mmHg 25%
    17:00 +25°C° 0 mm 3 m/s 759 mmHg 28%
    18:00 +23°C° 0 mm 2 m/s 759 mmHg 31%
    19:00 +21°C° 0 mm 2 m/s 759 mmHg 35%
    20:00 +21°C° 0 mm 1 m/s 760 mmHg 39%
    21:00 +19°C° 0 mm 1 m/s 761 mmHg 43%
    22:00 +19°C° 0 mm 1 m/s 760 mmHg 43%
    23:00 +18°C° 0 mm 1 m/s 760 mmHg 42%

    Après-demain, 25 Janvier, Samedi

    Heure Température Précipitation Vent Pression Humidité
    00:00 +18°C° 0 mm 1 m/s 760 mmHg 42%
    01:00 +16°C° 0 mm 1 m/s 760 mmHg 43%
    02:00 +16°C° 0 mm 1 m/s 760 mmHg 44%
    03:00 +15°C° 0 mm 1 m/s 759 mmHg 46%
    04:00 +15°C° 0 mm 1 m/s 760 mmHg 47%
    05:00 +15°C° 0 mm 1 m/s 760 mmHg 48%
    06:00 +14°C° 0 mm 1 m/s 760 mmHg 48%
    07:00 +16°C° 0 mm 1 m/s 760 mmHg 45%
    08:00 +19°C° 0 mm 1 m/s 761 mmHg 41%
    09:00 +19°C° 0 mm 2 m/s 761 mmHg 38%
    10:00 +21°C° 0 mm 2 m/s 761 mmHg 33%
    11:00 +24°C° 0 mm 3 m/s 761 mmHg 28%
    12:00 +26°C° 0 mm 3 m/s 760 mmHg 23%
    13:00 +26°C° 0 mm 3 m/s 760 mmHg 22%
    14:00 +27°C° 0 mm 4 m/s 759 mmHg 21%
    15:00 +27°C° 0 mm 4 m/s 758 mmHg 20%
    16:00 +26°C° 0 mm 3 m/s 758 mmHg 24%
    17:00 +24°C° 0 mm 2 m/s 758 mmHg 27%
    18:00 +22°C° 0 mm 1 m/s 758 mmHg 31%
    19:00 +21°C° 0 mm 1 m/s 758 mmHg 35%
    20:00 +20°C° 0 mm 1 m/s 759 mmHg 39%
    21:00 +18°C° 0 mm 2 m/s 759 mmHg 43%
    22:00 +17°C° 0 mm 2 m/s 759 mmHg 44%
    23:00 +17°C° 0 mm 2 m/s 759 mmHg 45%

    26 Janvier, Dimanche

    Heure Température Précipitation Vent Pression Humidité
    00:00 +16°C° 0 mm 2 m/s 759 mmHg 46%
    01:00 +16°C° 0 mm 2 m/s 759 mmHg 47%
    02:00 +15°C° 0 mm 2 m/s 758 mmHg 48%
    03:00 +15°C° 0 mm 2 m/s 758 mmHg 49%
    04:00 +15°C° 0 mm 2 m/s 758 mmHg 50%
    05:00 +14°C° 0 mm 1 m/s 758 mmHg 51%
    06:00 +14°C° 0 mm 1 m/s 758 mmHg 52%
    07:00 +16°C° 0 mm 2 m/s 759 mmHg 48%
    08:00 +18°C° 0 mm 2 m/s 759 mmHg 44%
    09:00 +20°C° 0 mm 2 m/s 760 mmHg 40%
    10:00 +21°C° 0 mm 2 m/s 760 mmHg 36%
    11:00 +24°C° 0 mm 2 m/s 759 mmHg 31%
    12:00 +26°C° 0 mm 3 m/s 759 mmHg 26%
    13:00 +27°C° 0 mm 3 m/s 758 mmHg 25%
    14:00 +27°C° 0 mm 3 m/s 758 mmHg 24%
    15:00 +28°C° 0 mm 3 m/s 757 mmHg 22%
    16:00 +26°C° 0 mm 3 m/s 757 mmHg 27%
    17:00 +24°C° 0 mm 2 m/s 757 mmHg 32%
    18:00 +21°C° 0 mm 2 m/s 757 mmHg 37%
    19:00 +20°C° 0 mm 2 m/s 757 mmHg 42%
    20:00 +19°C° 0 mm 2 m/s 758 mmHg 47%
    21:00 +18°C° 0 mm 2 m/s 758 mmHg 52%
    22:00 +18°C° 0 mm 2 m/s 758 mmHg 53%
    23:00 +17°C° 0 mm 2 m/s 758 mmHg 54%

    27 Janvier, Lundi

    Heure Température Précipitation Vent Pression Humidité
    00:00 +18°C° 0 mm 1 m/s 758 mmHg 55%
    01:00 +18°C° 0 mm 1 m/s 758 mmHg 53%
    02:00 +18°C° 0 mm 1 m/s 757 mmHg 52%
    03:00 +16°C° 0 mm 1 m/s 757 mmHg 50%
    04:00 +16°C° 0 mm 2 m/s 757 mmHg 51%
    05:00 +16°C° 0 mm 2 m/s 757 mmHg 51%
    06:00 +16°C° 0 mm 2 m/s 758 mmHg 51%
    07:00 +17°C° 0 mm 2 m/s 758 mmHg 47%
    08:00 +19°C° 0 mm 2 m/s 759 mmHg 44%
    09:00 +21°C° 0 mm 2 m/s 760 mmHg 40%
    10:00 +23°C° 0 mm 2 m/s 759 mmHg 37%
    11:00 +25°C° 0 mm 3 m/s 759 mmHg 33%
    12:00 +26°C° 0 mm 3 m/s 759 mmHg 29%
    13:00 +27°C° 0 mm 3 m/s 758 mmHg 27%
    14:00 +27°C° 0 mm 3 m/s 758 mmHg 26%
    15:00 +28°C° 0 mm 3 m/s 757 mmHg 24%
    16:00 +26°C° 0 mm 3 m/s 757 mmHg 29%
    17:00 +24°C° 0 mm 2 m/s 757 mmHg 33%
    18:00 +23°C° 0 mm 1 m/s 757 mmHg 38%
    19:00 +22°C° 0 mm 1 m/s 757 mmHg 43%
    20:00 +21°C° 0 mm 1 m/s 758 mmHg 48%
    21:00 +20°C° 0 mm 1 m/s 758 mmHg 53%
    22:00 +19°C° 0 mm 1 m/s 758 mmHg 54%
    23:00 +19°C° 0 mm 1 m/s 758 mmHg 54%

    28 Janvier, Mardi

    Heure Température Précipitation Vent Pression Humidité
    00:00 +19°C° 0 mm 1 m/s 758 mmHg 54%
    01:00 +18°C° 0 mm 1 m/s 758 mmHg 54%
    02:00 +18°C° 0 mm 1 m/s 757 mmHg 55%
    03:00 +16°C° 0 mm 0 m/s 757 mmHg 55%
    04:00 +16°C° 0 mm 1 m/s 757 mmHg 56%
    05:00 +16°C° 0 mm 1 m/s 758 mmHg 56%
    06:00 +16°C° 0 mm 1 m/s 758 mmHg 56%
    07:00 +19°C° 0 mm 1 m/s 758 mmHg 51%
    08:00 +19°C° 0 mm 0 m/s 759 mmHg 46%
    09:00 +21°C° 0 mm 0 m/s 759 mmHg 41%
    10:00 +23°C° 0 mm 0 m/s 759 mmHg 36%
    11:00 +24°C° 0 mm 0 m/s 759 mmHg 32%
    12:00 +26°C° 0 mm 0 m/s 759 mmHg 27%
    13:00 +29°C° 0 mm 1 m/s 759 mmHg 26%
    14:00 +29°C° 0 mm 1 m/s 758 mmHg 25%
    15:00 +29°C° 0 mm 2 m/s 758 mmHg 25%
    16:00 +27°C° 0 mm 2 m/s 758 mmHg 31%
    17:00 +25°C° 0 mm 3 m/s 758 mmHg 38%
    18:00 +22°C° 0 mm 3 m/s 758 mmHg 45%
    19:00 +21°C° 0 mm 3 m/s 758 mmHg 50%
    20:00 +21°C° 0 mm 2 m/s 758 mmHg 55%
    21:00 +20°C° 0 mm 2 m/s 759 mmHg 61%
    22:00 +20°C° 0 mm 2 m/s 759 mmHg 64%
    23:00 +20°C° 0 mm 1 m/s 759 mmHg 67%
    Voir plus